time, Switch, Flow(0), Analog(2)
yyyy/mm/dd HH:MM:SS.fff, True=FILTERED|False=TOTAL, L/min, V
2023/06/26 14:00:02.436, True, 4.311, 0.124971
2023/06/26 14:00:02.932, True, 4.046, 0.123751
2023/06/26 14:00:03.435, True, 4.309, 0.122148
2023/06/26 14:00:03.932, True, 3.706, 0.126421
2023/06/26 14:00:04.436, True, 2.984, 0.125582
2023/06/26 14:00:04.940, True, 1.990, 0.123445
2023/06/26 14:00:05.436, True, 2.025, 0.125658
2023/06/26 14:00:05.940, True, 1.986, 0.126116
2023/06/26 14:00:06.444, True, 1.992, 0.123140
2023/06/26 14:00:06.940, True, 1.683, 0.125048
2023/06/26 14:00:07.444, True, 1.990, 0.124971
2023/06/26 14:00:07.947, True, 1.990, 0.125277
2023/06/26 14:00:08.444, True, 1.688, 0.125734
2023/06/26 14:00:08.948, True, 1.986, 0.123674
2023/06/26 14:00:09.452, True, 1.990, 0.124285
2023/06/26 14:00:09.948, True, 2.022, 0.123369
2023/06/26 14:00:10.452, True, 1.990, 0.125200
2023/06/26 14:00:10.955, True, 1.658, 0.125048
2023/06/26 14:00:11.452, True, 2.022, 0.124437
2023/06/26 14:00:11.956, True, 1.990, 0.124971
2023/06/26 14:00:12.459, True, 1.989, 0.124132
2023/06/26 14:00:12.956, True, 2.022, 0.124743
2023/06/26 14:00:13.460, True, 1.658, 0.126802
2023/06/26 14:00:13.964, True, 1.658, 0.123980
2023/06/26 14:00:14.460, True, 2.023, 0.125353
2023/06/26 14:00:14.964, True, 1.988, 0.125505
2023/06/26 14:00:15.467, True, 1.990, 0.124743
2023/06/26 14:00:15.964, True, 2.022, 0.123217
2023/06/26 14:00:16.468, True, 1.990, 0.123903
2023/06/26 14:00:16.971, True, 1.993, 0.123522
2023/06/26 14:00:17.468, True, 2.019, 0.124971
2023/06/26 14:00:17.972, True, 1.989, 0.123293
2023/06/26 14:00:18.476, True, 1.990, 0.122148
2023/06/26 14:00:18.980, True, 1.990, 0.125200
2023/06/26 14:00:19.476, True, 1.685, 0.124056
2023/06/26 14:00:19.980, True, 1.990, 0.122759
2023/06/26 14:00:20.484, True, 1.990, 0.124666
2023/06/26 14:00:20.980, True, 1.685, 0.124056
2023/06/26 14:00:21.483, True, 1.990, 0.123293
2023/06/26 14:00:21.979, True, 2.022, 0.124666
2023/06/26 14:00:22.484, True, 1.658, 0.124056
2023/06/26 14:00:22.987, True, 1.990, 0.124361
2023/06/26 14:00:23.492, True, 1.658, 0.124437
2023/06/26 14:00:23.988, True, 1.685, 0.125505
2023/06/26 14:00:24.492, True, 1.990, 0.123903
2023/06/26 14:00:24.996, True, 1.990, 0.122377
2023/06/26 14:00:25.491, True, 2.022, 0.123903
2023/06/26 14:00:25.995, True, 1.990, 0.126802
2023/06/26 14:00:26.500, True, 1.990, 0.124895
2023/06/26 14:00:26.996, True, 2.022, 0.125963
2023/06/26 14:00:27.500, True, 1.990, 0.122759
2023/06/26 14:00:28.003, True, 1.990, 0.126040
2023/06/26 14:00:28.499, True, 2.021, 0.122911
2023/06/26 14:00:29.004, True, 1.990, 0.123827
2023/06/26 14:00:29.508, True, 1.990, 0.123674
2023/06/26 14:00:30.004, True, 2.022, 0.125734
2023/06/26 14:00:30.507, True, 1.989, 0.125658
2023/06/26 14:00:31.011, True, 1.990, 0.125429
2023/06/26 14:00:31.507, True, 2.022, 0.126497
2023/06/26 14:00:32.011, True, 1.990, 0.123903
2023/06/26 14:00:32.516, True, 1.990, 0.125582
2023/06/26 14:00:33.011, True, 2.022, 0.123217
2023/06/26 14:00:33.516, True, 1.989, 0.124056
2023/06/26 14:00:34.019, True, 1.990, 0.126116
2023/06/26 14:00:34.515, True, 1.685, 0.125658
2023/06/26 14:00:35.019, True, 2.324, 0.125353
2023/06/26 14:00:35.524, True, 1.659, 0.127031
2023/06/26 14:00:36.027, True, 1.986, 0.123903
2023/06/26 14:00:36.523, True, 2.022, 0.125658
2023/06/26 14:00:37.028, True, 1.990, 0.125200
2023/06/26 14:00:37.531, True, 1.989, 0.128023
2023/06/26 14:00:38.027, True, 2.022, 0.127031
2023/06/26 14:00:38.531, True, 1.658, 0.125811
2023/06/26 14:00:39.035, True, 1.993, 0.128252
2023/06/26 14:00:39.531, True, 2.018, 0.127947
2023/06/26 14:00:40.035, True, 1.991, 0.127108
2023/06/26 14:00:40.539, True, 1.988, 0.127031
2023/06/26 14:00:41.035, True, 2.022, 0.130541
2023/06/26 14:00:41.539, True, 1.989, 0.129778
2023/06/26 14:00:42.043, True, 1.990, 0.129854
2023/06/26 14:00:42.539, True, 2.022, 0.130922
2023/06/26 14:00:43.043, True, 1.658, 0.127413
2023/06/26 14:00:43.547, True, 1.992, 0.130388
2023/06/26 14:00:44.043, True, 2.021, 0.131762
2023/06/26 14:00:44.547, True, 1.988, 0.131838
2023/06/26 14:00:45.043, True, 1.685, 0.130617
2023/06/26 14:00:45.548, True, 1.989, 0.131228
2023/06/26 14:00:46.051, True, 1.990, 0.131228
2023/06/26 14:00:46.547, True, 2.021, 0.133822
2023/06/26 14:00:47.052, True, 1.658, 0.133211
2023/06/26 14:00:47.555, True, 1.990, 0.132219
2023/06/26 14:00:48.051, True, 2.022, 0.131914
2023/06/26 14:00:48.555, True, 1.989, 0.133135
2023/06/26 14:00:49.059, True, 1.658, 0.130770
2023/06/26 14:00:49.555, True, 2.022, 0.133288
2023/06/26 14:00:50.059, True, 1.658, 0.132906
2023/06/26 14:00:50.564, True, 1.658, 0.132601
2023/06/26 14:00:51.059, True, 2.022, 0.131914
2023/06/26 14:00:51.563, True, 1.989, 0.132753
2023/06/26 14:00:52.067, True, 1.990, 0.134203
2023/06/26 14:00:52.563, True, 2.022, 0.134356
2023/06/26 14:00:53.067, True, 1.990, 0.133593
2023/06/26 14:00:53.571, True, 1.658, 0.133059
2023/06/26 14:00:54.067, True, 2.022, 0.134661
2023/06/26 14:00:54.571, True, 1.990, 0.134432
2023/06/26 14:00:55.067, True, 2.025, 0.133593
2023/06/26 14:00:55.571, True, 1.986, 0.136950
2023/06/26 14:00:56.075, True, 1.989, 0.135424
2023/06/26 14:00:56.571, True, 2.022, 0.134127
2023/06/26 14:00:57.075, True, 1.991, 0.136110
2023/06/26 14:00:57.580, True, 1.991, 0.134661
2023/06/26 14:00:58.075, True, 1.682, 0.135576
2023/06/26 14:00:58.579, True, 1.990, 0.136645
2023/06/26 14:00:59.083, True, 1.990, 0.135882
2023/06/26 14:00:59.579, True, 2.022, 0.135500
2023/06/26 14:01:00.083, True, 1.991, 0.135195
2023/06/26 14:01:00.587, True, 1.988, 0.134432
2023/06/26 14:01:01.083, True, 2.022, 0.135042
2023/06/26 14:01:01.587, True, 1.992, 0.134432
2023/06/26 14:01:02.091, True, 1.987, 0.134432
2023/06/26 14:01:02.595, True, 1.990, 0.136492
2023/06/26 14:01:03.091, True, 2.022, 0.136263
2023/06/26 14:01:03.595, True, 1.989, 0.135653
2023/06/26 14:01:04.099, True, 1.990, 0.134279
2023/06/26 14:01:04.595, True, 1.687, 0.133135
2023/06/26 14:01:05.099, True, 1.990, 0.135576
2023/06/26 14:01:05.603, True, 1.656, 0.136950
2023/06/26 14:01:06.099, True, 2.022, 0.135195
2023/06/26 14:01:06.603, True, 1.990, 0.134203
2023/06/26 14:01:07.107, True, 1.658, 0.136339
2023/06/26 14:01:07.611, True, 1.990, 0.135424
2023/06/26 14:01:08.107, True, 2.020, 0.136873
2023/06/26 14:01:08.611, True, 1.659, 0.134737
2023/06/26 14:01:09.107, True, 2.020, 0.134813
2023/06/26 14:01:09.611, True, 1.657, 0.136645
2023/06/26 14:01:10.115, True, 1.990, 0.137789
2023/06/26 14:01:10.611, True, 2.022, 0.135271
2023/06/26 14:01:11.115, True, 1.990, 0.136187
2023/06/26 14:01:11.619, True, 1.992, 0.136110
2023/06/26 14:01:12.115, True, 2.020, 0.132982
2023/06/26 14:01:12.619, True, 1.989, 0.135729
2023/06/26 14:01:13.123, True, 1.990, 0.135271
2023/06/26 14:01:13.619, True, 1.685, 0.134432
2023/06/26 14:01:14.123, True, 2.322, 0.135424
2023/06/26 14:01:14.627, True, 1.989, 0.135805
2023/06/26 14:01:15.123, True, 2.022, 0.134661
2023/06/26 14:01:15.628, True, 1.658, 0.133669
2023/06/26 14:01:16.131, True, 1.990, 0.136797
2023/06/26 14:01:16.627, True, 2.022, 0.137560
2023/06/26 14:01:17.131, True, 1.990, 0.134813
2023/06/26 14:01:17.635, True, 1.990, 0.134203
2023/06/26 14:01:18.131, True, 2.022, 0.135119
2023/06/26 14:01:18.635, True, 1.990, 0.136263
2023/06/26 14:01:19.139, True, 1.989, 0.135882
2023/06/26 14:01:19.635, True, 2.022, 0.136034
2023/06/26 14:01:20.139, True, 1.990, 0.133364
2023/06/26 14:01:20.643, True, 1.992, 0.135958
2023/06/26 14:01:21.139, True, 1.683, 0.136034
2023/06/26 14:01:21.643, True, 1.991, 0.136034
2023/06/26 14:01:22.139, True, 2.020, 0.135500
2023/06/26 14:01:22.643, True, 1.990, 0.133440
2023/06/26 14:01:23.147, True, 1.990, 0.134585
2023/06/26 14:01:23.643, True, 2.023, 0.134890
2023/06/26 14:01:24.147, True, 1.657, 0.135805
2023/06/26 14:01:24.651, True, 1.990, 0.136492
2023/06/26 14:01:25.147, True, 2.021, 0.136416
2023/06/26 14:01:25.651, True, 1.658, 0.134585
2023/06/26 14:01:26.155, True, 1.990, 0.137331
2023/06/26 14:01:26.651, True, 2.022, 0.135729
2023/06/26 14:01:27.155, True, 1.991, 0.131380
2023/06/26 14:01:27.659, True, 1.989, 0.135271
2023/06/26 14:01:28.155, True, 2.021, 0.135882
2023/06/26 14:01:28.659, True, 1.990, 0.135653
2023/06/26 14:01:29.163, True, 1.991, 0.135424
2023/06/26 14:01:29.659, True, 2.020, 0.135729
2023/06/26 14:01:30.163, True, 1.658, 0.135576
2023/06/26 14:01:30.667, True, 1.990, 0.134890
2023/06/26 14:01:31.163, True, 2.022, 0.135195
2023/06/26 14:01:31.667, True, 1.990, 0.135271
2023/06/26 14:01:32.171, True, 2.321, 0.134966
2023/06/26 14:01:32.667, True, 1.685, 0.134737
2023/06/26 14:01:33.171, True, 1.991, 0.133669
2023/06/26 14:01:33.675, True, 1.991, 0.134890
2023/06/26 14:01:34.171, True, 2.020, 0.135500
2023/06/26 14:01:34.675, True, 1.658, 0.137026
2023/06/26 14:01:35.179, True, 1.990, 0.134813
2023/06/26 14:01:35.675, True, 1.685, 0.133898
2023/06/26 14:01:36.179, True, 1.659, 0.135271
2023/06/26 14:01:36.683, True, 1.989, 0.135195
2023/06/26 14:01:37.179, True, 2.022, 0.135271
2023/06/26 14:01:37.683, True, 1.989, 0.132753
2023/06/26 14:01:38.187, True, 1.991, 0.134813
2023/06/26 14:01:38.683, True, 2.022, 0.134661
2023/06/26 14:01:39.187, True, 1.988, 0.133364
2023/06/26 14:01:39.691, True, 1.991, 0.132677
2023/06/26 14:01:40.187, True, 1.685, 0.132448
2023/06/26 14:01:40.691, True, 1.990, 0.137407
2023/06/26 14:01:41.195, True, 1.988, 0.134508
2023/06/26 14:01:41.691, True, 2.021, 0.134661
2023/06/26 14:01:42.195, True, 1.990, 0.134203
2023/06/26 14:01:42.699, True, 1.990, 0.134737
2023/06/26 14:01:43.195, True, 1.685, 0.133898
2023/06/26 14:01:43.699, True, 1.990, 0.132448
2023/06/26 14:01:44.203, True, 1.990, 0.134051
2023/06/26 14:01:44.699, True, 2.022, 0.133593
2023/06/26 14:01:45.203, True, 1.658, 0.132525
2023/06/26 14:01:45.707, True, 1.990, 0.134203
2023/06/26 14:01:46.203, True, 1.685, 0.134127
2023/06/26 14:01:46.707, True, 1.990, 0.131838
2023/06/26 14:01:47.211, True, 1.992, 0.136339
2023/06/26 14:01:47.707, True, 2.020, 0.136034
2023/06/26 14:01:48.211, True, 1.990, 0.134661
2023/06/26 14:01:48.707, True, 2.022, 0.135119
2023/06/26 14:01:49.211, True, 1.990, 0.133516
2023/06/26 14:01:49.714, True, 1.990, 0.133440
2023/06/26 14:01:50.211, True, 1.685, 0.132067
2023/06/26 14:01:50.715, True, 1.990, 0.134051
2023/06/26 14:01:51.219, True, 1.658, 0.134203
2023/06/26 14:01:51.714, True, 2.022, 0.133822
2023/06/26 14:01:52.219, True, 1.990, 0.132906
2023/06/26 14:01:52.723, True, 1.990, 0.133211
2023/06/26 14:01:53.219, True, 2.022, 0.133593
2023/06/26 14:01:53.723, True, 1.990, 0.131838
2023/06/26 14:01:54.227, True, 1.990, 0.132601
2023/06/26 14:01:54.723, True, 1.685, 0.133822
2023/06/26 14:01:55.227, True, 1.990, 0.133211
2023/06/26 14:01:55.731, True, 1.658, 0.134051
2023/06/26 14:01:56.227, True, 2.022, 0.131685
2023/06/26 14:01:56.731, True, 1.658, 0.134890
2023/06/26 14:01:57.235, True, 1.990, 0.133593
2023/06/26 14:01:57.731, True, 2.022, 0.134432
2023/06/26 14:01:58.235, True, 1.991, 0.133898
2023/06/26 14:01:58.739, True, 1.657, 0.132067
2023/06/26 14:01:59.235, True, 2.022, 0.133593
2023/06/26 14:01:59.739, True, 1.990, 0.134203
2023/06/26 14:02:00.243, True, 1.990, 0.131991
2023/06/26 14:02:00.739, True, 2.022, 0.132067
2023/06/26 14:02:01.243, True, 1.658, 0.134051
2023/06/26 14:02:01.747, True, 1.990, 0.134813
2023/06/26 14:02:02.243, True, 2.022, 0.133211
2023/06/26 14:02:02.747, True, 1.990, 0.131609
2023/06/26 14:02:03.251, True, 1.658, 0.135195
2023/06/26 14:02:03.747, True, 2.022, 0.134203
2023/06/26 14:02:04.251, True, 1.990, 0.133974
2023/06/26 14:02:04.755, True, 1.990, 0.132525
2023/06/26 14:02:05.251, True, 2.022, 0.133364
2023/06/26 14:02:05.755, True, 1.990, 0.132143
2023/06/26 14:02:06.259, True, 1.990, 0.131380
2023/06/26 14:02:06.755, True, 2.022, 0.132830
2023/06/26 14:02:07.259, True, 1.990, 0.135729
2023/06/26 14:02:07.763, True, 1.989, 0.131456
2023/06/26 14:02:08.267, True, 1.990, 0.132296
2023/06/26 14:02:08.763, True, 2.022, 0.131380
2023/06/26 14:02:09.267, True, 1.990, 0.132525
2023/06/26 14:02:09.771, True, 1.658, 0.133440
2023/06/26 14:02:10.267, True, 2.022, 0.132601
2023/06/26 14:02:10.771, True, 1.990, 0.133516
2023/06/26 14:02:11.267, True, 2.022, 0.133593
2023/06/26 14:02:11.771, True, 1.990, 0.131228
2023/06/26 14:02:12.275, True, 1.990, 0.132143
2023/06/26 14:02:12.779, True, 1.658, 0.130922
2023/06/26 14:02:13.275, True, 2.022, 0.133059
2023/06/26 14:02:13.779, True, 1.990, 0.132219
2023/06/26 14:02:14.275, True, 2.022, 0.131762
2023/06/26 14:02:14.779, True, 1.658, 0.130694
2023/06/26 14:02:15.283, True, 1.990, 0.131151
2023/06/26 14:02:15.779, True, 2.022, 0.132219
2023/06/26 14:02:16.283, True, 1.657, 0.132601
2023/06/26 14:02:16.787, True, 1.990, 0.132753
2023/06/26 14:02:17.291, True, 1.990, 0.131838
2023/06/26 14:02:17.787, True, 2.022, 0.132296
2023/06/26 14:02:18.291, True, 1.990, 0.132601
2023/06/26 14:02:18.795, True, 1.658, 0.132219
2023/06/26 14:02:19.291, True, 2.022, 0.131838
2023/06/26 14:02:19.795, True, 1.990, 0.135195
2023/06/26 14:02:20.299, True, 1.989, 0.133364
2023/06/26 14:02:20.795, True, 2.022, 0.130465
2023/06/26 14:02:21.299, True, 1.658, 0.130922
2023/06/26 14:02:21.803, True, 1.992, 0.133211
2023/06/26 14:02:22.299, True, 2.019, 0.131075
2023/06/26 14:02:22.803, True, 1.658, 0.132753
2023/06/26 14:02:23.299, True, 2.022, 0.132143
2023/06/26 14:02:23.803, True, 1.989, 0.132143
2023/06/26 14:02:24.306, True, 1.990, 0.130312
2023/06/26 14:02:24.802, True, 2.022, 0.132601
2023/06/26 14:02:25.307, True, 1.990, 0.133135
2023/06/26 14:02:25.810, True, 1.990, 0.132448
2023/06/26 14:02:26.315, True, 1.990, 0.129473
2023/06/26 14:02:26.811, True, 2.022, 0.133745
2023/06/26 14:02:27.315, True, 1.990, 0.131228
2023/06/26 14:02:27.819, True, 1.990, 0.132525
2023/06/26 14:02:28.315, True, 1.685, 0.132982
2023/06/26 14:02:28.819, True, 1.990, 0.128862
2023/06/26 14:02:29.315, True, 2.022, 0.133593
2023/06/26 14:02:29.819, True, 1.658, 0.131991
2023/06/26 14:02:30.323, True, 1.990, 0.131151
2023/06/26 14:02:30.819, True, 2.022, 0.131380
2023/06/26 14:02:31.323, True, 1.989, 0.131228
2023/06/26 14:02:31.827, True, 1.993, 0.132372
2023/06/26 14:02:32.323, True, 1.682, 0.131685
2023/06/26 14:02:32.827, True, 1.993, 0.132753
2023/06/26 14:02:33.331, True, 1.655, 0.129931
2023/06/26 14:02:33.835, True, 1.993, 0.129549
2023/06/26 14:02:34.331, True, 1.683, 0.129397
2023/06/26 14:02:34.835, True, 1.989, 0.129931
2023/06/26 14:02:35.339, True, 1.991, 0.129549
2023/06/26 14:02:35.835, True, 2.021, 0.131838
2023/06/26 14:02:36.339, True, 1.991, 0.128939
2023/06/26 14:02:36.843, True, 1.658, 0.133440
2023/06/26 14:02:37.339, True, 2.020, 0.130159
2023/06/26 14:02:37.843, True, 1.993, 0.130846
2023/06/26 14:02:38.347, True, 1.986, 0.132525
2023/06/26 14:02:38.843, True, 2.024, 0.131762
2023/06/26 14:02:39.347, True, 1.989, 0.130770
2023/06/26 14:02:39.851, True, 1.987, 0.130236
2023/06/26 14:02:40.347, True, 2.022, 0.129168
2023/06/26 14:02:40.851, True, 1.989, 0.130312
2023/06/26 14:02:41.347, True, 2.026, 0.130999
2023/06/26 14:02:41.851, True, 1.986, 0.128481
2023/06/26 14:02:42.355, True, 1.990, 0.131685
2023/06/26 14:02:42.859, True, 1.990, 0.127489
2023/06/26 14:02:43.355, True, 1.685, 0.128939
2023/06/26 14:02:43.859, True, 1.990, 0.131075
2023/06/26 14:02:44.363, True, 1.990, 0.133364
2023/06/26 14:02:44.859, True, 2.025, 0.130770
2023/06/26 14:02:45.363, True, 1.655, 0.132677
2023/06/26 14:02:45.867, True, 1.990, 0.130236
2023/06/26 14:02:46.371, True, 1.658, 0.130236
2023/06/26 14:02:46.867, True, 2.022, 0.129702
2023/06/26 14:02:47.371, True, 1.989, 0.131075
2023/06/26 14:02:47.867, True, 2.022, 0.133364
2023/06/26 14:02:48.371, True, 1.990, 0.129015
2023/06/26 14:02:48.875, True, 1.658, 0.131914
2023/06/26 14:02:49.371, True, 2.022, 0.131151
2023/06/26 14:02:49.875, True, 1.658, 0.130083
2023/06/26 14:02:50.379, True, 1.658, 0.130388
2023/06/26 14:02:50.875, True, 2.022, 0.131533
2023/06/26 14:02:51.379, True, 1.658, 0.130770
2023/06/26 14:02:51.883, True, 1.990, 0.130617
2023/06/26 14:02:52.379, True, 1.685, 0.132143
2023/06/26 14:02:52.883, True, 1.990, 0.128405
2023/06/26 14:02:53.387, True, 1.989, 0.131380
2023/06/26 14:02:53.883, True, 2.022, 0.130007
2023/06/26 14:02:54.387, True, 1.990, 0.130922
2023/06/26 14:02:54.891, True, 1.990, 0.131914
2023/06/26 14:02:55.387, True, 2.022, 0.130312
2023/06/26 14:02:55.891, True, 1.658, 0.130236
2023/06/26 14:02:56.395, True, 1.990, 0.130159
2023/06/26 14:02:56.891, True, 2.022, 0.131456
2023/06/26 14:02:57.395, True, 1.989, 0.129168
2023/06/26 14:02:57.891, True, 2.022, 0.132372
2023/06/26 14:02:58.395, True, 1.990, 0.130159
2023/06/26 14:02:58.899, True, 1.990, 0.128099
2023/06/26 14:02:59.395, True, 1.685, 0.129244
2023/06/26 14:02:59.899, True, 1.990, 0.131075
2023/06/26 14:03:00.403, True, 1.990, 0.128557
2023/06/26 14:03:00.899, True, 2.021, 0.131228
2023/06/26 14:03:01.403, True, 1.990, 0.130007
2023/06/26 14:03:01.907, True, 1.990, 0.131533
2023/06/26 14:03:02.403, True, 2.022, 0.130159
2023/06/26 14:03:02.906, True, 1.990, 0.132906
2023/06/26 14:03:03.411, True, 1.989, 0.131838
2023/06/26 14:03:03.906, True, 2.022, 0.128710
2023/06/26 14:03:04.411, True, 1.658, 0.131685
2023/06/26 14:03:04.915, True, 1.993, 0.130388
2023/06/26 14:03:05.419, True, 1.655, 0.129473
2023/06/26 14:03:05.915, True, 2.022, 0.130236
2023/06/26 14:03:06.419, True, 1.658, 0.130236
2023/06/26 14:03:06.923, True, 1.990, 0.130770
2023/06/26 14:03:07.419, True, 1.685, 0.130541
2023/06/26 14:03:07.923, True, 1.990, 0.128710
2023/06/26 14:03:08.427, True, 1.989, 0.129778
2023/06/26 14:03:08.923, True, 2.022, 0.129320
2023/06/26 14:03:09.427, True, 1.658, 0.131762
2023/06/26 14:03:09.931, True, 1.992, 0.128252
2023/06/26 14:03:10.427, True, 2.019, 0.128252
2023/06/26 14:03:10.931, True, 1.990, 0.129702
2023/06/26 14:03:11.434, True, 1.989, 0.128481
2023/06/26 14:03:11.931, True, 2.022, 0.131304
2023/06/26 14:03:12.435, True, 1.990, 0.129244
2023/06/26 14:03:12.939, True, 1.989, 0.131380
2023/06/26 14:03:13.435, True, 2.022, 0.131380
2023/06/26 14:03:13.939, True, 1.990, 0.129015
2023/06/26 14:03:14.443, True, 1.658, 0.130694
2023/06/26 14:03:14.939, True, 2.022, 0.127565
2023/06/26 14:03:15.443, True, 1.990, 0.128939
2023/06/26 14:03:15.947, True, 1.658, 0.128786
2023/06/26 14:03:16.443, True, 2.022, 0.130770
2023/06/26 14:03:16.947, True, 1.990, 0.128786
2023/06/26 14:03:17.451, True, 1.658, 0.128176
2023/06/26 14:03:17.955, True, 1.990, 0.130541
2023/06/26 14:03:18.451, True, 2.022, 0.130922
2023/06/26 14:03:18.955, True, 1.990, 0.125963
2023/06/26 14:03:19.459, True, 1.990, 0.129854
2023/06/26 14:03:19.963, True, 1.990, 0.128786
2023/06/26 14:03:20.459, True, 2.022, 0.128557
2023/06/26 14:03:20.963, True, 1.992, 0.126802
2023/06/26 14:03:21.459, True, 2.019, 0.130617
2023/06/26 14:03:21.963, True, 1.990, 0.127718
2023/06/26 14:03:22.467, True, 1.658, 0.130083
2023/06/26 14:03:22.963, True, 2.022, 0.129625
2023/06/26 14:03:23.467, True, 1.990, 0.128786
2023/06/26 14:03:23.971, True, 1.989, 0.128099
2023/06/26 14:03:24.467, True, 1.685, 0.129778
2023/06/26 14:03:24.971, True, 1.990, 0.128634
2023/06/26 14:03:25.475, True, 1.658, 0.128939
2023/06/26 14:03:25.971, True, 2.022, 0.126421
2023/06/26 14:03:26.475, True, 1.990, 0.127794
2023/06/26 14:03:26.979, True, 1.658, 0.128405
2023/06/26 14:03:27.475, True, 2.022, 0.128252
2023/06/26 14:03:27.979, True, 1.989, 0.127413
2023/06/26 14:03:28.483, True, 1.658, 0.128710
2023/06/26 14:03:28.979, True, 2.022, 0.128023
2023/06/26 14:03:29.483, True, 1.658, 0.127718
2023/06/26 14:03:29.987, True, 1.990, 0.131075
2023/06/26 14:03:30.491, True, 1.990, 0.130007
2023/06/26 14:03:30.987, True, 2.022, 0.131456
2023/06/26 14:03:31.491, True, 1.658, 0.128786
2023/06/26 14:03:31.987, True, 2.022, 0.128557
2023/06/26 14:03:32.491, True, 1.658, 0.127794
2023/06/26 14:03:32.995, True, 1.990, 0.128634
2023/06/26 14:03:33.499, True, 1.990, 0.129320
2023/06/26 14:03:33.995, True, 1.685, 0.128634
2023/06/26 14:03:34.499, True, 1.990, 0.128023
2023/06/26 14:03:34.995, True, 1.685, 0.129778
2023/06/26 14:03:35.499, True, 1.990, 0.127489
2023/06/26 14:03:36.003, True, 1.990, 0.129168
2023/06/26 14:03:36.499, True, 1.685, 0.130312
2023/06/26 14:03:37.003, True, 1.990, 0.129702
2023/06/26 14:03:37.507, True, 1.989, 0.128176
2023/06/26 14:03:38.003, True, 2.023, 0.128023
2023/06/26 14:03:38.507, True, 1.988, 0.129397
2023/06/26 14:03:39.011, True, 1.990, 0.128786
2023/06/26 14:03:39.507, True, 2.022, 0.129015
2023/06/26 14:03:40.011, True, 1.993, 0.129931
2023/06/26 14:03:40.515, True, 1.655, 0.126650
2023/06/26 14:03:41.019, True, 1.989, 0.128710
2023/06/26 14:03:41.515, True, 1.685, 0.126955
2023/06/26 14:03:42.019, True, 1.658, 0.129473
2023/06/26 14:03:42.523, True, 1.990, 0.130236
2023/06/26 14:03:43.019, True, 1.685, 0.130083
2023/06/26 14:03:43.523, True, 1.990, 0.128405
2023/06/26 14:03:44.019, True, 2.022, 0.127337
2023/06/26 14:03:44.523, True, 1.990, 0.127947
2023/06/26 14:03:45.027, True, 1.990, 0.129091
2023/06/26 14:03:45.523, True, 2.021, 0.129320
2023/06/26 14:03:46.027, True, 1.990, 0.129625
2023/06/26 14:03:46.531, True, 1.990, 0.127489
2023/06/26 14:03:47.035, True, 1.992, 0.129091
2023/06/26 14:03:47.531, True, 1.683, 0.127565
2023/06/26 14:03:48.035, True, 1.990, 0.128557
2023/06/26 14:03:48.539, True, 1.990, 0.127718
2023/06/26 14:03:49.035, True, 1.685, 0.126574
2023/06/26 14:03:49.539, True, 1.990, 0.129244
2023/06/26 14:03:50.043, True, 1.990, 0.129931
2023/06/26 14:03:50.539, True, 2.022, 0.129168
2023/06/26 14:03:51.043, True, 1.658, 0.130007
2023/06/26 14:03:51.539, True, 2.022, 0.130083
2023/06/26 14:03:52.043, True, 1.989, 0.129625
2023/06/26 14:03:52.547, True, 1.990, 0.127031
2023/06/26 14:03:53.043, True, 1.685, 0.130770
2023/06/26 14:03:53.547, True, 1.989, 0.129625
2023/06/26 14:03:54.051, True, 1.658, 0.128176
2023/06/26 14:03:54.555, True, 1.657, 0.127108
2023/06/26 14:03:55.051, True, 2.022, 0.127031
2023/06/26 14:03:55.555, True, 1.659, 0.128862
2023/06/26 14:03:56.051, True, 2.022, 0.128328
2023/06/26 14:03:56.555, True, 1.657, 0.128405
2023/06/26 14:03:57.058, True, 1.990, 0.128099
2023/06/26 14:03:57.554, True, 1.686, 0.125658
2023/06/26 14:03:58.058, True, 1.988, 0.128405
2023/06/26 14:03:58.562, True, 1.992, 0.127489
2023/06/26 14:03:59.058, True, 1.685, 0.127337
2023/06/26 14:03:59.563, True, 1.988, 0.129549
2023/06/26 14:04:00.058, True, 2.025, 0.127718
2023/06/26 14:04:00.562, True, 1.989, 0.128405
2023/06/26 14:04:01.066, True, 1.656, 0.127108
2023/06/26 14:04:01.562, True, 2.025, 0.131380
2023/06/26 14:04:02.066, True, 1.989, 0.127031
2023/06/26 14:04:02.570, True, 1.987, 0.125887
2023/06/26 14:04:03.075, True, 1.991, 0.128862
2023/06/26 14:04:03.571, True, 2.022, 0.129091
2023/06/26 14:04:04.075, True, 1.989, 0.126802
2023/06/26 14:04:04.578, True, 1.992, 0.127718
2023/06/26 14:04:05.074, True, 2.022, 0.126497
2023/06/26 14:04:05.579, True, 1.987, 0.129473
2023/06/26 14:04:06.083, True, 1.988, 0.129625
2023/06/26 14:04:06.579, True, 1.688, 0.128939
2023/06/26 14:04:07.083, True, 1.988, 0.127947
2023/06/26 14:04:07.587, True, 1.992, 0.129549
2023/06/26 14:04:08.083, True, 2.018, 0.127489
2023/06/26 14:04:08.587, True, 1.659, 0.128862
2023/06/26 14:04:09.082, True, 2.024, 0.129091
2023/06/26 14:04:09.587, True, 1.655, 0.128634
2023/06/26 14:04:10.091, True, 1.658, 0.129015
2023/06/26 14:04:10.595, True, 1.658, 0.129549
2023/06/26 14:04:11.091, True, 2.023, 0.129244
2023/06/26 14:04:11.595, True, 1.657, 0.128710